Willimantic, CT

12:45 PM EDT on March 24, 2017 (GMT -0400)
Windham

Weather History for KIJD - October, 2013

Change the Weather History Date:

Thursday, October 24, 2013

  Actual Average Record
Temperature  
Mean Temperature 42 °F -  
Max Temperature 53 °F 62 °F 79 °F (1978)
Min Temperature 32 °F 34 °F 15 °F (1969)
Degree Days  
Heating Degree Days 23    
Moisture  
Dew Point 28 °F    
Average Humidity 60    
Maximum Humidity 89    
Minimum Humidity 32    
Precipitation  
Precipitation 0.00 in - - ()
Sea Level Pressure  
Sea Level Pressure 29.83 in    
Wind  
Wind Speed 4 mph (West)    
Max Wind Speed 14 mph    
Max Gust Speed 22 mph    
Visibility 10 miles    
Events      
Averages and records for this station are not official NWS values.
T = Trace of Precipitation, MM = Missing Value Source: NWS Daily Summary

Daily Weather History Graph

Daily Weather History Graph

Search for Another Location

Airport or City:

Trip Planner

Search our weather history database for the weather conditions in past years. The results will help you decide how hot, cold, wet, or windy it might be!

Date:

Astronomy

Oct. 24, 2013 Rise Set
Actual Time 7:11 AM EDT 5:53 PM EDT
Civil Twilight 6:43 AM EDT 6:21 PM EDT
Nautical Twilight 6:10 AM EDT 6:54 PM EDT
Astronomical Twilight 5:38 AM EDT 7:26 PM EDT
Moon 10:13 PM EDT 12:12 PM EDT
Length of Visible Light 11h 38m
Length of Day
10h 42m
Waning Gibbous, 71% of the Moon is Illuminated
Oct 24
Waning Gibbous
Oct 26
Last Quarter
Nov 3
New
Nov 10
First Quarter
Nov 17
Full

Hourly Weather History & Observations

Time (EDT) Temp. Windchill Dew Point Humidity Pressure Visibility Wind Dir Wind Speed Gust Speed Precip Events Conditions
12:52 AM 43.0 °F 41.3 °F 34.0 °F 71% 29.70 in 10.0 mi West 3.5 mph - N/A   Clear
1:52 AM 41.0 °F 39.0 °F 33.1 °F 73% 29.71 in 10.0 mi WSW 3.5 mph - N/A   Clear
2:52 AM 37.9 °F 35.5 °F 33.1 °F 83% 29.73 in 10.0 mi West 3.5 mph - N/A   Clear
3:52 AM 36.0 °F - 30.9 °F 82% 29.74 in 10.0 mi Calm Calm - N/A   Clear
4:52 AM 39.9 °F 37.8 °F 33.1 °F 77% 29.77 in 10.0 mi West 3.5 mph - N/A   Clear
5:52 AM 37.0 °F - 32.0 °F 82% 29.79 in 10.0 mi Calm Calm - N/A   Clear
6:52 AM 33.1 °F - 30.0 °F 89% 29.81 in 10.0 mi Calm Calm - N/A   Clear
7:52 AM 32.0 °F - 28.9 °F 88% 29.84 in 10.0 mi Calm Calm - N/A   Clear
8:52 AM 41.0 °F 38.0 °F 33.1 °F 73% 29.86 in - WSW 4.6 mph - N/A   Unknown
9:52 AM 45.0 °F - 30.0 °F 56% 29.87 in 10.0 mi North - - N/A   Clear
10:52 AM 46.9 °F - 27.0 °F 46% 29.86 in 10.0 mi West 11.5 mph 19.6 mph N/A   Partly Cloudy
11:52 AM 48.9 °F - 27.0 °F 43% 29.85 in - North - - N/A   Unknown
12:52 PM 51.1 °F - 24.1 °F 35% 29.83 in - WNW 13.8 mph 21.9 mph N/A   Unknown
1:52 PM 50.0 °F - 25.0 °F 38% 29.82 in 10.0 mi West 11.5 mph 17.3 mph N/A   Scattered Clouds
2:52 PM 51.1 °F - 21.9 °F 32% 29.82 in 10.0 mi WNW 13.8 mph 20.7 mph N/A   Mostly Cloudy
3:52 PM 52.0 °F - 23.0 °F 32% 29.83 in 10.0 mi WNW 9.2 mph 20.7 mph N/A   Scattered Clouds
4:52 PM 51.1 °F - 24.1 °F 35% 29.83 in 10.0 mi West 11.5 mph 18.4 mph N/A   Clear
5:52 PM 48.9 °F - 24.1 °F 38% 29.85 in 10.0 mi West 4.6 mph - N/A   Clear
6:52 PM 44.1 °F - 26.1 °F 49% 29.87 in 10.0 mi Calm Calm - N/A   Clear
7:52 PM 42.1 °F 39.2 °F 26.1 °F 53% 29.89 in 10.0 mi SW 4.6 mph - N/A   Clear
8:52 PM 43.0 °F 41.3 °F 26.1 °F 51% 29.89 in 10.0 mi WSW 3.5 mph - N/A   Clear
9:52 PM 37.0 °F - 27.0 °F 67% 29.92 in 10.0 mi Calm Calm - N/A   Clear
10:52 PM 37.0 °F 34.5 °F 27.0 °F 67% 29.93 in 10.0 mi South 3.5 mph - N/A   Clear
11:52 PM 32.0 °F - 27.0 °F 82% 29.94 in 9.0 mi Calm Calm - N/A   Clear